Location: Goettingen
(51.5300°N, 9.9433°E)
Time: 14:29:49
(UTC+02:00)

ISS - Pass Details

Date: 24 September 2022
Orbit: 414 x 417 km, 51.6° (Epoch: 28 September)

Event Time Altitude Azimuth Distance (km) Brightness Sun altitude
Rises 19:43:09 0° 257° (WSW) 2,358 1.8 -5.3°
Reaches altitude 10° 19:45:14 10° 257° (WSW) 1,496 0.5 -5.7°
Maximum altitude 19:48:36 83° 172° (S) 426 -3.7 -6.2°
Drops below altitude 10° 19:51:58 10° 82° (E) 1,500 -1.6 -6.7°
Enters shadow 19:52:18 - 82° (E) 1,633 -1.4 -6.7°
